Regional Weather Roundup
Issued by NWS

Home | Current Version | Previous Version | Text Only | Print | Product List | Glossary Off
Versions: 1 2 3 4 5 6 7 8 9 10 11 12 13 14 15 16 17 18 19 20 21 22 23 24 25 26 27 28 29 30 31 32 33 34 35 36 37 38 39 40 41 42 43 44 45 46 47 48 49 50

000
ASUS45 KCYS 290510
RWRWY

WYOMING REGIONAL WEATHER ROUNDUP
NATIONAL WEATHER SERVICE CHEYENNE WY
1100 PM MDT TUE MAR 28 2017

NOTE:  "FAIR" INDICATES FEW OR NO CLOUDS BELOW 12,000 FEET
WITH NO SIGNIFICANT WEATHER AND/OR OBSTRUCTIONS TO VISIBILITY.

WYZ001-290600-
YELLOWSTONE NATIONAL PARK

CITY           SKY/WX    TMP DP  RH WIND       PRES   REMARKS
LK YELLOWSTONE   N/A     22  16  78 CALM      30.22R
W YELLOWSTONE  NOT AVBL

$$
WYZ002>013-054>058-071-098>099-290600-
NORTHERN WYOMING

CITY           SKY/WX    TMP DP  RH WIND       PRES   REMARKS
JACKSON        FAIR      28  25  86 CALM      30.20F
CODY           FAIR      35  28  75 SW6       30.15R WCI  30
GREYBULL       FAIR      41  35  79 E5        30.13S
WORLAND        FAIR      37  34  89 S3        30.13S
SHERIDAN       FAIR      32  30  92 S6        30.14S WCI  26
BUFFALO        FAIR      39  32  76 CALM      30.14F
GILLETTE       CLOUDY    42  37  82 NW3       30.13S
HULETT         CLOUDY    43  39  87 CALM      30.14R
NEWCASTLE      CLOUDY    39  39 100 CALM      30.15S

$$
WYZ014>020-022>026-101>103-290600-
CENTRAL WYOMING

CITY           SKY/WX    TMP DP  RH WIND       PRES   REMARKS
BIG PINEY      FAIR      30  21  69 N10       30.18R WCI  21
PINEDALE       FAIR      32  23  69 NW12      30.18S WCI  23
DUBOIS         FAIR      32  19  59 W13       30.16F WCI  22
LANDER         FAIR      36  30  79 SW9       30.14S WCI  29
RIVERTON       FAIR      38  32  79 SE5       30.16S WCI  34
CASPER         CLOUDY    36  33  89 CALM      30.15S
DOUGLAS        CLOUDY    40  38  93 N9        30.13F WCI  34

$$
WYZ021-027>030-104>119-290600-
SOUTHERN WYOMING

CITY           SKY/WX    TMP DP  RH WIND       PRES   REMARKS
EVANSTON       FAIR      31  22  69 N10       30.22R WCI  22
KEMMERER         N/A     30  21  69 NW8       30.20S WCI  23
ROCK SPRINGS   CLOUDY    35  31  85 S3        30.17F
DIXON            N/A     37  30  76 N6G21     30.15R WCI  32
RAWLINS        CLOUDY    36  31  82 CALM      30.15S
SARATOGA       CLOUDY    34  34 100 N8        30.14S WCI  27
LARAMIE        CLOUDY    32  32 100 N10       30.10S WCI  24
CHEYENNE       CLOUDY    34  33  96 N12       30.08F FOG     WCI  25
TORRINGTON     CLOUDY    40  38  93 NE6       30.11F
PINE BLUFFS    CLOUDY    34  34 100 N7        30.10S WCI  28

$$



USA.gov is the U.S. government's official web portal to all federal, state and local government web resources and services.